THORAD AGENA D DEB, 4971

Orbit data source: Space-Track

THORAD AGENA D DEB, 4971 is space debris in SSO originally from a launch on Wed, 08 Apr 1970 UTC launched from the Air Force Western Test Range (AFWTR). Debris objects in space refer to the collection of defunct objects orbiting the Earth. Examples of debris include non-operational satellites, rocket bodies, and fragments generated from explosions, collisions, or faulty payload assembly.

Loading next visibility...
Identifier
4971, 1970-025GR
Orbit
SSO
Country
Flag of USUS
Related business
Manufacturer
Unknown
Mission
Spacecraft
Bus & Motor
Unknown
Mass
Unknown
Launch date (UTC)
1970-04-08 (56 years ago)
Launch vehicle
Unknown
Launch site
Air Force Western Test Range (AFWTR)
Object type
Payload
Rocket body
Debris
Shape & HBR
Unknown shape, 0.1 m
Radar Cross Section
Small (<0.1 m²)

Expand to show TLE details & history
Last TLE update: 2 days ago

TLE from 2 days ago
0 THORAD AGENA D DEB
1 04971U 70025GR  25345.42409942  .00000005  00000-0  14372-3 0  9993
2 04971  99.9227 284.7606 0340019 242.2656 245.9142 12.84732492603578
Epoch: 2025-12-11T10:10Z
TLE epoch observation values (Epoch: 2025-12-11T10:10:42.189Z)
Latitude
54.18744°
Longitude
-114.3349°
Altitude
1,445.429 km
Speed
7.091 km/s
True Right ascension
07h 54m 53s
True Declination
54° 02' 18"
Sunlit
Object was in full shadow at epoch
Visualization orbit readout
Latitude
Unknown
Longitude
Unknown
Altitude
Unknown
Speed
Unknown
Apparent Right ascension
Unknown
Apparent Declination
Unknown
Sunlit
N/A
Visualization observer readout
Local Sidereal Time
22:20:36
Azimuth
Unknown
Elevation
Unknown
Doppler factor
Unknown
Orbital elements
Apogee altitude
1,581.645 km
Perigee altitude
1,058.149 km
Semi-major axis
7,698.034 km
Eccentricity
0.034
Inclination
99.9227°
RAAN
284.7606°
Arg. of periapsis
242.2656°
True anomaly
242.41995°
Mean anomaly
245.9142°
Eccentric anomaly
244.16081°
Mean motion
3.21346 °/min
Orbital period
112.03 mins
BSTAR
0.00014372
Loading maneuver chart data...
Computing Atmospheric mass density...

Documentation

Showing up to 5 results
|